SCP
-0 -0 -0 -0 -0 -0 -0 -0 -0 -0 -0 -0 -0 -0 -0 -0 0 0 0 0 -0 -0 -0 -0 0 0 0 0 0 0 0 0 0 0 0 0 0 0 0 0 0 0 0 0 0
-0 -0 -0 -0 -0 -0 -0 -0 -0 -0 -0 -0 -0 -0 0 0 0 0 -0 -0 0 0 0 0 0 0 0 0 0 0 0 0 0 0 0 0 0 0 0 0 0 0 0 0 0
-0 -0 -0 -0 -0 -0 -0 -0 -0 -0 -0 0 0 0 0 -0 0 0 0 0 0 0 0 0 0 0 0 0 0 0 0 0 0 0 0 0 0 0 0 0 0 0 0 0 0
-0 -0 -0 -0 -0 -0 -0 -0 -0 0 0 0 0 0 0 0 0 0 0 0 0 0 0 0 0 0 0 0 0 0 0 0 0 0 0 0 0 0 0 0 0 0 0 0 0
-0 -0 -0 -0 -0 -0 -0 0 0 0 0 0 0 0 0 0 0 0 0 0 0 0 0 0 0 0 0 0 0 0 0 0 0 0 0 0 0 0 0 0 0 0 0 0 0
-0 -0 -0 -0 -0 -0 -0 -0 0 0 -0 -0 0 0 0 0 0 0 0 0 0 0 0 0 0 0 0 0 0 0 0 0 0 0 0 0 0 0 0 0 0 0 0 0 0
-0 -0 -0 -0 -0 -0 -0 0 0 0 0 -0 0 0 0 0 0 0 0 0 0 0 0 0 0 0 0 0 0 0 0 0 0 0 0 0 0 0 0 0 0 0 0 0 0
-0 -0 -0 -0 -0 -0 -0 -0 0 -0 0 0 0 0 0 -0 -0 0 0 0 0 0 0 0 0 0 0 0 0 0 0 0 0 0 0 0 0 0 0 0 0 0 0 0 0
-0 -0 -0 0 0 -0 -0 -0 0 0 0 -0 0 0 0 0 0 0 0 0 0 0 0 0 0 0 0 0 0 0 0 0 0 0 0 0 0 0 0 0 0 0 0 0 0
0 0 0 0 0 -0 -0 -0 0 0 0 0 0 0 0 0 0 0 0 0 0 0 0 0 0 0 0 0 0 0 0 0 0 0 0 0 0 0 0 0 0 0 0 0 0
0 0 0 0 0 0 0 0 0 0 0 0 0 0 0 0 0 0 0 0 0 0 0 0 0 0 0 0 0 0 0 0 0 0 0 0 0 0 0 0 0 0 0 0 0
0 0 0 0 -0 -0 -0 -0 0 0 0 0 0 0 0 0 0 0 0 0 0 0 0 0 0 0 0 0 0 0 0 0 0 0 0 0 0 0 0 0 0 0 0 0 0
0 0 0 0 0 0 -0 -0 0 0 0 0 0 0 0 0 0 0 0 0 0 0 0 0 0 0 0 0 0 0 0 0 0 0 0 0 0 0 0 0 0 0 0 0 0
0 0 0 0 0 0 0 0 0 0 0 0 0 0 0 0 0 0 0 0 0 0 -0 0 0 0 0 0 0 0 0 0 0 0 0 0 0 0 0 0 0 0 0 0 0
0 0 0 0 0 0 0 0 0 0 0 0 0 0 0 0 0 0 0 0 0 0 0 0 0 0 0 0 0 0 0 0 0 0 0 0 0 0 0 0 0 0 0 0 0
0 0 0 0 0 0 0 0 0 0 0 0 0 0 0 0 0 0 0 0 0 0 0 0 0 0 0 0 0 0 0 0 0 0 0 0 0 0 0 0 0 0 0 0 0
0 0 0 0 0 0 0 0 0 0 0 0 0 0 0 0 0 0 0 0 0 0 0 0 0 0 0 0 0 0 0 0 0 0 0 0 0 0 0 0 0 0 0 0 0
0 0 0 0 0 0 0 0 0 0 0 0 0 0 0 0 0 0 0 0 0 0 0 0 0 0 0 0 0 0 0 0 0 0 0 0 0 0 0 0 0 0 0 0 0
0 0 0 0 0 0 0 0 0 0 0 0 0 0 0 0 0 0 0 0 0 0 0 0 0 0 0 0 0 0 0 0 0 0 0 0 0 0 0 0 0 0 0 0 0
0 0 0 0 0 0 0 0 0 0 0 0 0 0 0 0 0 0 0 0 0 0 0 0 0 0 0 0 0 0 0 0 0 0 0 0 0 0 0 0 0 0 0 0 0
0 0 0 0 0 0 0 0 0 0 0 0 0 0 0 0 0 0 0 0 0 0 0 0 0 0 0 0 0 0 0 0 0 0 0 0 0 0 0 0 0 0 0 0 0
0 0 0 0 0 0 0 0 0 0 0 0 0 0 0 0 0 0 0 0 0 0 0 0 0 0 0 0 0 0 0 0 0 0 0 0 0 0 0 0 0 0 0 0 0
0 0 0 0 0 0 0 0 0 0 0 0 0 0 0 0 0 0 0 0 0 0 0 0 0 0 0 0 0 0 0 0 0 0 0 0 0 0 0 0 0 0 0 0 0
0 0 0 0 0 0 0 0 0 0 0 0 0 0 0 0 0 0 0 0 0 0 0 0 0 0 0 0 0 0 0 0 0 0 0 0 0 0 0 0 0 0 0 0 0
0 0 0 0 0 0 0 0 0 0 0 0 0 0 0 0 0 0 0 0 0 0 0 0 0 0 0 0 0 0 0 0 0 0 0 0 0 0 0 0 0 0 0 0 0
0 0 0 0 0 0 0 0 0 0 0 0 0 0 0 0 0 0 0 0 0 0 0 0 0 0 0 0 0 0 0 0 0 0 0 0 0 0 0 0 0 0 0 0 0
0 0 0 0 0 0 0 0 0 0 0 0 0 0 0 0 0 0 0 0 0 0 0 0 0 0 0 0 0 0 0 0 0 0 0 0 0 0 0 0 0 0 0 0 0
Wind_Speed_500mb
23 24 25 27 28 30 32 32 32 33 31 27 23 14 7 1 8 9 4 5 12 15 12 9 8 3 3 2 4 4 8 3 4 6 4 8 9 4 15 11 12 4 9 15 11
25 27 28 29 30 31 32 33 33 33 31 26 20 13 5 9 14 10 10 11 13 7 4 4 7 6 3 3 2 8 6 12 5 4 4 6 4 13 9 17 15 12 5 4 7
28 28 29 30 31 32 34 36 36 34 29 25 14 10 2 20 10 9 9 8 6 4 4 3 5 5 4 4 4 2 7 6 4 4 9 7 7 6 5 10 21 19 15 14 16
30 31 31 33 33 33 37 42 42 33 25 19 15 7 6 18 5 5 4 2 1 1 1 3 5 3 5 6 6 5 10 8 8 7 7 7 8 8 16 34 32 35 36 31 19
30 31 33 33 32 35 40 46 40 36 23 17 13 5 15 12 9 7 2 2 1 2 3 4 10 7 3 7 12 5 7 14 20 35 27 22 23 13 41 48 34 31 35 40 40
31 33 35 35 33 34 40 46 37 27 14 21 6 11 11 10 10 7 6 7 5 5 6 6 6 8 6 4 1 8 16 26 29 39 26 11 7 4 29 31 41 38 37 38 30
32 35 37 38 38 38 42 44 27 18 25 11 10 16 17 12 7 4 5 8 9 5 4 8 11 7 7 10 11 13 12 15 7 11 7 1 6 11 27 37 40 39 37 38 26
33 37 40 41 44 41 42 41 21 11 16 8 10 9 12 12 11 5 5 3 8 9 10 8 11 7 4 13 11 8 7 9 9 14 6 6 13 15 27 46 41 38 37 27 8
34 38 42 44 46 42 42 29 12 16 10 8 6 9 10 9 12 11 9 9 7 8 7 9 7 6 5 5 9 11 4 5 14 12 5 6 11 17 43 37 41 47 46 19 11
36 37 39 43 43 43 45 23 9 30 8 9 14 8 12 13 10 8 10 7 7 11 4 9 9 7 7 9 5 9 10 8 9 10 14 19 20 10 30 35 45 39 36 10 23
36 34 34 41 38 47 48 4 9 3 33 15 12 7 12 15 13 10 14 8 9 9 9 11 11 8 13 6 7 7 7 13 9 17 9 9 22 15 27 39 23 27 32 37 33
33 32 31 35 27 45 45 42 31 17 9 16 14 12 13 17 11 17 18 12 11 7 8 12 2 10 11 8 5 7 11 13 15 8 10 15 35 22 10 17 21 26 39 38 34
32 30 29 33 18 36 45 45 33 25 4 8 12 12 11 14 10 14 15 10 7 7 6 6 4 12 8 9 13 8 8 10 14 10 9 13 14 5 12 36 47 45 40 37 35
32 32 32 29 12 31 32 36 29 14 7 14 10 10 12 10 6 10 8 12 9 6 7 6 6 12 12 7 7 5 10 13 18 15 9 8 16 4 7 15 18 30 35 31 32
31 33 32 28 17 34 38 33 16 2 7 7 6 8 14 8 13 16 13 7 3 6 8 10 13 13 10 6 5 6 9 14 13 11 6 4 3 8 5 6 8 13 24 28 29
29 29 29 23 21 31 28 21 5 9 2 6 7 11 13 19 15 18 12 13 5 6 5 6 9 8 7 3 8 13 9 11 6 1 5 8 2 9 5 4 3 10 24 28 31
27 26 26 26 29 28 29 7 9 10 9 12 7 11 7 12 15 18 9 14 9 14 10 12 4 3 11 9 12 13 17 10 11 5 14 7 12 12 5 11 11 8 18 26 26
26 21 21 23 22 25 25 8 2 8 7 7 10 9 10 16 10 17 9 9 13 11 5 6 10 7 11 6 5 5 8 7 12 7 21 17 12 8 8 7 5 13 16 23 29
22 18 15 16 19 23 11 10 4 6 6 13 9 10 7 10 10 14 8 4 8 12 6 11 9 7 12 6 3 11 6 3 11 23 13 8 11 3 7 7 14 18 18 23 29
18 14 16 14 17 19 10 8 5 8 8 7 7 9 8 12 12 13 7 4 5 15 4 2 13 4 7 8 8 11 6 6 5 8 10 10 13 18 9 15 16 18 26 30 28
13 7 19 16 21 12 8 4 6 15 16 10 4 6 6 7 4 4 6 6 10 10 7 3 6 8 4 2 13 8 6 4 4 4 7 13 13 6 16 17 13 21 25 33 30
7 5 23 16 10 8 5 5 7 14 18 12 8 8 6 10 6 5 6 8 30 18 8 7 3 9 15 18 3 9 8 8 7 14 7 7 31 25 22 18 26 28 42 48 33
5 8 16 10 7 4 5 7 10 12 10 10 7 8 6 3 5 1 7 10 36 19 14 10 5 10 16 10 8 4 4 7 5 3 27 13 18 9 15 20 41 38 57 55 43
3 5 15 21 17 8 5 5 4 11 7 8 7 12 9 7 7 7 7 6 37 29 45 26 9 15 20 21 4 19 17 11 11 14 15 25 28 38 29 28 44 46 52 51 35
6 5 4 4 12 13 5 4 3 6 6 6 7 8 6 4 8 6 4 10 9 29 6 5 9 8 18 18 13 30 39 39 29 32 16 42 35 40 33 29 39 43 36 20 17
6 8 12 9 8 7 6 4 4 1 1 1 5 3 0 8 12 19 7 4 12 13 9 5 17 6 41 29 29 38 35 40 41 35 26 36 39 29 39 27 17 14 15 14 23
13 15 7 8 7 7 6 8 7 5 5 8 1 2 5 5 14 28 35 36 40 27 22 11 13 17 40 20 13 16 23 18 8 11 10 10 15 9 13 10 11 12 16 21 28
Wind_Direction_500mb
15 10 5 360 354 351 348 346 346 343 342 345 345 347 338 47 147 134 75 116 129 127 116 106 112 100 26 74 86 109 64 188 214 165 245 356 14 347 330 305 328 313 277 276 218
13 8 4 359 354 350 347 344 342 340 337 337 341 347 4 122 123 98 98 118 128 118 81 87 50 7 342 23 46 85 115 214 212 215 245 300 309 313 334 327 294 292 83 75 181
11 7 2 357 353 350 347 342 339 335 333 335 339 348 93 148 109 64 88 110 131 59 67 23 8 355 5 353 347 140 191 216 262 321 300 286 265 254 301 290 260 272 274 316 261
11 7 3 358 355 352 347 341 337 332 329 325 317 332 128 164 107 64 86 103 116 130 16 344 327 20 36 351 351 336 264 254 294 302 316 262 278 269 237 268 299 295 289 284 278
9 6 3 359 356 351 346 344 342 334 327 328 323 186 140 115 86 52 61 95 77 140 330 15 45 17 7 326 332 195 297 314 297 295 284 265 252 257 277 291 297 299 293 283 278
8 5 360 356 352 348 345 348 348 351 6 349 64 137 149 81 81 65 79 58 42 31 28 34 25 347 288 274 286 312 292 295 301 293 278 239 291 175 279 301 302 302 297 294 288
7 2 356 351 350 348 344 345 347 27 7 16 93 117 111 95 48 87 70 69 47 21 329 348 341 330 323 324 328 311 328 327 294 322 311 167 351 247 304 319 309 309 319 289 274
5 360 355 349 351 350 345 342 341 332 7 69 114 120 73 89 60 8 35 6 49 42 18 8 349 334 300 313 345 11 41 359 296 348 26 120 273 294 351 340 318 313 315 310 272
356 355 353 348 352 357 356 353 55 14 53 76 80 121 98 80 27 28 23 12 6 5 350 346 347 28 4 45 359 8 290 287 316 346 349 54 265 283 316 330 316 313 311 335 130
350 349 354 346 355 0 4 18 120 38 35 55 53 83 43 345 331 55 24 9 359 346 42 25 18 45 32 54 285 298 306 283 264 297 328 305 279 288 319 319 310 319 346 67 108
350 355 357 349 356 360 12 26 36 40 41 57 37 36 16 24 66 31 8 45 18 29 26 10 38 320 296 238 278 309 278 278 261 272 301 254 284 273 286 277 315 15 83 96 81
352 351 357 352 352 1 8 56 39 352 329 26 43 48 30 22 31 31 31 29 27 16 353 11 8 298 284 326 327 301 286 288 284 331 319 299 292 277 280 41 40 85 87 77 67
353 354 1 353 350 0 17 29 13 3 359 23 23 19 10 15 20 13 30 4 41 6 11 188 273 3 37 16 15 340 2 324 281 309 243 316 308 106 64 58 73 76 74 65 51
354 358 357 360 5 1 6 360 348 6 72 332 9 24 9 348 26 355 23 8 2 345 347 257 322 21 15 34 3 301 336 326 317 342 305 61 290 359 63 69 50 47 52 41 29
352 355 1 7 14 5 345 343 349 74 38 330 10 14 348 34 333 14 3 359 328 308 67 269 352 345 48 19 338 300 305 294 276 261 319 256 275 258 172 53 21 14 23 42 37
352 352 357 9 3 352 347 345 30 42 17 351 22 360 12 20 16 357 21 30 17 19 350 272 337 45 359 164 63 296 327 295 319 185 297 126 21 277 327 274 168 39 29 12 9
345 347 348 354 350 354 347 346 32 110 346 348 341 360 82 352 14 14 63 35 36 355 6 333 24 123 29 28 350 21 24 335 336 4 266 9 346 254 61 21 61 28 353 1 8
343 345 345 351 354 353 350 43 131 56 6 346 355 343 71 13 9 349 21 26 12 21 336 359 332 32 347 69 316 340 115 181 279 279 296 313 249 269 123 71 354 322 337 359 351
341 344 350 352 349 354 358 50 59 25 311 347 332 44 20 360 4 10 59 92 30 9 40 349 272 314 63 325 51 328 51 317 263 268 287 245 299 189 217 318 335 319 327 340 323
343 343 2 351 352 346 71 112 87 14 359 22 40 47 359 350 18 20 356 353 26 22 5 325 296 321 314 20 74 102 253 337 306 310 293 292 292 275 232 265 277 304 320 320 312
351 343 360 351 349 38 91 87 103 29 37 38 24 355 76 6 302 297 313 43 14 340 28 358 170 286 334 170 280 353 324 32 187 263 272 303 275 243 258 263 269 280 296 305 298
3 13 346 358 50 49 70 355 28 6 21 19 79 61 64 14 337 316 319 45 24 354 13 332 249 272 246 266 245 181 187 124 132 286 237 250 273 270 279 252 242 270 299 300 298
52 353 4 21 101 46 35 64 66 26 29 22 57 35 22 69 320 307 9 91 27 32 356 337 320 327 325 11 2 92 214 198 191 159 263 260 275 308 288 270 256 254 275 293 291
46 35 29 56 69 91 73 18 70 42 72 39 45 66 40 359 6 307 327 356 342 331 316 289 186 206 255 264 212 295 276 265 216 271 277 255 282 294 294 282 278 278 293 297 286
62 67 65 15 42 72 78 87 76 15 51 51 65 94 87 353 332 269 326 299 280 297 302 355 259 233 263 275 282 274 286 283 255 252 249 279 287 284 293 290 287 295 302 307 268
116 145 99 93 110 81 18 217 133 320 184 355 123 342 212 204 219 286 272 235 230 278 256 228 272 288 290 287 271 278 278 266 269 267 249 256 273 271 288 313 332 324 314 317 323
128 133 141 147 132 98 214 166 146 45 295 229 352 158 268 278 307 294 286 268 255 263 272 237 268 285 278 285 302 279 254 257 252 239 220 237 262 303 303 335 360 7 347 336 334
Wind_Speed_850mb
23 24 25 27 28 30 32 32 32 33 31 27 23 14 7 1 8 9 4 5 12 15 12 9 8 3 3 2 4 4 8 3 4 6 4 8 9 4 15 11 12 4 9 15 11
25 27 28 29 30 31 32 33 33 33 31 26 20 13 5 9 14 10 10 11 13 7 4 4 7 6 3 3 2 8 6 12 5 4 4 6 4 13 9 17 15 12 5 4 7
28 28 29 30 31 32 34 36 36 34 29 25 14 10 2 20 10 9 9 8 6 4 4 3 5 5 4 4 4 2 7 6 4 4 9 7 7 6 5 10 21 19 15 14 16
30 31 31 33 33 33 37 42 42 33 25 19 15 7 6 18 5 5 4 2 1 1 1 3 5 3 5 6 6 5 10 8 8 7 7 7 8 8 16 34 32 35 36 31 19
30 31 33 33 32 35 40 46 40 36 23 17 13 5 15 12 9 7 2 2 1 2 3 4 10 7 3 7 12 5 7 14 20 35 27 22 23 13 41 48 34 31 35 40 40
31 33 35 35 33 34 40 46 37 27 14 21 6 11 11 10 10 7 6 7 5 5 6 6 6 8 6 4 1 8 16 26 29 39 26 11 7 4 29 31 41 38 37 38 30
32 35 37 38 38 38 42 44 27 18 25 11 10 16 17 12 7 4 5 8 9 5 4 8 11 7 7 10 11 13 12 15 7 11 7 1 6 11 27 37 40 39 37 38 26
33 37 40 41 44 41 42 41 21 11 16 8 10 9 12 12 11 5 5 3 8 9 10 8 11 7 4 13 11 8 7 9 9 14 6 6 13 15 27 46 41 38 37 27 8
34 38 42 44 46 42 42 29 12 16 10 8 6 9 10 9 12 11 9 9 7 8 7 9 7 6 5 5 9 11 4 5 14 12 5 6 11 17 43 37 41 47 46 19 11
36 37 39 43 43 43 45 23 9 30 8 9 14 8 12 13 10 8 10 7 7 11 4 9 9 7 7 9 5 9 10 8 9 10 14 19 20 10 30 35 45 39 36 10 23
36 34 34 41 38 47 48 4 9 3 33 15 12 7 12 15 13 10 14 8 9 9 9 11 11 8 13 6 7 7 7 13 9 17 9 9 22 15 27 39 23 27 32 37 33
33 32 31 35 27 45 45 42 31 17 9 16 14 12 13 17 11 17 18 12 11 7 8 12 2 10 11 8 5 7 11 13 15 8 10 15 35 22 10 17 21 26 39 38 34
32 30 29 33 18 36 45 45 33 25 4 8 12 12 11 14 10 14 15 10 7 7 6 6 4 12 8 9 13 8 8 10 14 10 9 13 14 5 12 36 47 45 40 37 35
32 32 32 29 12 31 32 36 29 14 7 14 10 10 12 10 6 10 8 12 9 6 7 6 6 12 12 7 7 5 10 13 18 15 9 8 16 4 7 15 18 30 35 31 32
31 33 32 28 17 34 38 33 16 2 7 7 6 8 14 8 13 16 13 7 3 6 8 10 13 13 10 6 5 6 9 14 13 11 6 4 3 8 5 6 8 13 24 28 29
29 29 29 23 21 31 28 21 5 9 2 6 7 11 13 19 15 18 12 13 5 6 5 6 9 8 7 3 8 13 9 11 6 1 5 8 2 9 5 4 3 10 24 28 31
27 26 26 26 29 28 29 7 9 10 9 12 7 11 7 12 15 18 9 14 9 14 10 12 4 3 11 9 12 13 17 10 11 5 14 7 12 12 5 11 11 8 18 26 26
26 21 21 23 22 25 25 8 2 8 7 7 10 9 10 16 10 17 9 9 13 11 5 6 10 7 11 6 5 5 8 7 12 7 21 17 12 8 8 7 5 13 16 23 29
22 18 15 16 19 23 11 10 4 6 6 13 9 10 7 10 10 14 8 4 8 12 6 11 9 7 12 6 3 11 6 3 11 23 13 8 11 3 7 7 14 18 18 23 29
18 14 16 14 17 19 10 8 5 8 8 7 7 9 8 12 12 13 7 4 5 15 4 2 13 4 7 8 8 11 6 6 5 8 10 10 13 18 9 15 16 18 26 30 28
13 7 19 16 21 12 8 4 6 15 16 10 4 6 6 7 4 4 6 6 10 10 7 3 6 8 4 2 13 8 6 4 4 4 7 13 13 6 16 17 13 21 25 33 30
7 5 23 16 10 8 5 5 7 14 18 12 8 8 6 10 6 5 6 8 30 18 8 7 3 9 15 18 3 9 8 8 7 14 7 7 31 25 22 18 26 28 42 48 33
5 8 16 10 7 4 5 7 10 12 10 10 7 8 6 3 5 1 7 10 36 19 14 10 5 10 16 10 8 4 4 7 5 3 27 13 18 9 15 20 41 38 57 55 43
3 5 15 21 17 8 5 5 4 11 7 8 7 12 9 7 7 7 7 6 37 29 45 26 9 15 20 21 4 19 17 11 11 14 15 25 28 38 29 28 44 46 52 51 35
6 5 4 4 12 13 5 4 3 6 6 6 7 8 6 4 8 6 4 10 9 29 6 5 9 8 18 18 13 30 39 39 29 32 16 42 35 40 33 29 39 43 36 20 17
6 8 12 9 8 7 6 4 4 1 1 1 5 3 0 8 12 19 7 4 12 13 9 5 17 6 41 29 29 38 35 40 41 35 26 36 39 29 39 27 17 14 15 14 23
13 15 7 8 7 7 6 8 7 5 5 8 1 2 5 5 14 28 35 36 40 27 22 11 13 17 40 20 13 16 23 18 8 11 10 10 15 9 13 10 11 12 16 21 28
Wind_Direction_850mb
15 10 5 360 354 351 348 346 346 343 342 345 345 347 338 47 147 134 75 116 129 127 116 106 112 100 26 74 86 109 64 188 214 165 245 356 14 347 330 305 328 313 277 276 218
13 8 4 359 354 350 347 344 342 340 337 337 341 347 4 122 123 98 98 118 128 118 81 87 50 7 342 23 46 85 115 214 212 215 245 300 309 313 334 327 294 292 83 75 181
11 7 2 357 353 350 347 342 339 335 333 335 339 348 93 148 109 64 88 110 131 59 67 23 8 355 5 353 347 140 191 216 262 321 300 286 265 254 301 290 260 272 274 316 261
11 7 3 358 355 352 347 341 337 332 329 325 317 332 128 164 107 64 86 103 116 130 16 344 327 20 36 351 351 336 264 254 294 302 316 262 278 269 237 268 299 295 289 284 278
9 6 3 359 356 351 346 344 342 334 327 328 323 186 140 115 86 52 61 95 77 140 330 15 45 17 7 326 332 195 297 314 297 295 284 265 252 257 277 291 297 299 293 283 278
8 5 360 356 352 348 345 348 348 351 6 349 64 137 149 81 81 65 79 58 42 31 28 34 25 347 288 274 286 312 292 295 301 293 278 239 291 175 279 301 302 302 297 294 288
7 2 356 351 350 348 344 345 347 27 7 16 93 117 111 95 48 87 70 69 47 21 329 348 341 330 323 324 328 311 328 327 294 322 311 167 351 247 304 319 309 309 319 289 274
5 360 355 349 351 350 345 342 341 332 7 69 114 120 73 89 60 8 35 6 49 42 18 8 349 334 300 313 345 11 41 359 296 348 26 120 273 294 351 340 318 313 315 310 272
356 355 353 348 352 357 356 353 55 14 53 76 80 121 98 80 27 28 23 12 6 5 350 346 347 28 4 45 359 8 290 287 316 346 349 54 265 283 316 330 316 313 311 335 130
350 349 354 346 355 0 4 18 120 38 35 55 53 83 43 345 331 55 24 9 359 346 42 25 18 45 32 54 285 298 306 283 264 297 328 305 279 288 319 319 310 319 346 67 108
350 355 357 349 356 360 12 26 36 40 41 57 37 36 16 24 66 31 8 45 18 29 26 10 38 320 296 238 278 309 278 278 261 272 301 254 284 273 286 277 315 15 83 96 81
352 351 357 352 352 1 8 56 39 352 329 26 43 48 30 22 31 31 31 29 27 16 353 11 8 298 284 326 327 301 286 288 284 331 319 299 292 277 280 41 40 85 87 77 67
353 354 1 353 350 0 17 29 13 3 359 23 23 19 10 15 20 13 30 4 41 6 11 188 273 3 37 16 15 340 2 324 281 309 243 316 308 106 64 58 73 76 74 65 51
354 358 357 360 5 1 6 360 348 6 72 332 9 24 9 348 26 355 23 8 2 345 347 257 322 21 15 34 3 301 336 326 317 342 305 61 290 359 63 69 50 47 52 41 29
352 355 1 7 14 5 345 343 349 74 38 330 10 14 348 34 333 14 3 359 328 308 67 269 352 345 48 19 338 300 305 294 276 261 319 256 275 258 172 53 21 14 23 42 37
352 352 357 9 3 352 347 345 30 42 17 351 22 360 12 20 16 357 21 30 17 19 350 272 337 45 359 164 63 296 327 295 319 185 297 126 21 277 327 274 168 39 29 12 9
345 347 348 354 350 354 347 346 32 110 346 348 341 360 82 352 14 14 63 35 36 355 6 333 24 123 29 28 350 21 24 335 336 4 266 9 346 254 61 21 61 28 353 1 8
343 345 345 351 354 353 350 43 131 56 6 346 355 343 71 13 9 349 21 26 12 21 336 359 332 32 347 69 316 340 115 181 279 279 296 313 249 269 123 71 354 322 337 359 351
341 344 350 352 349 354 358 50 59 25 311 347 332 44 20 360 4 10 59 92 30 9 40 349 272 314 63 325 51 328 51 317 263 268 287 245 299 189 217 318 335 319 327 340 323
343 343 2 351 352 346 71 112 87 14 359 22 40 47 359 350 18 20 356 353 26 22 5 325 296 321 314 20 74 102 253 337 306 310 293 292 292 275 232 265 277 304 320 320 312
351 343 360 351 349 38 91 87 103 29 37 38 24 355 76 6 302 297 313 43 14 340 28 358 170 286 334 170 280 353 324 32 187 263 272 303 275 243 258 263 269 280 296 305 298
3 13 346 358 50 49 70 355 28 6 21 19 79 61 64 14 337 316 319 45 24 354 13 332 249 272 246 266 245 181 187 124 132 286 237 250 273 270 279 252 242 270 299 300 298
52 353 4 21 101 46 35 64 66 26 29 22 57 35 22 69 320 307 9 91 27 32 356 337 320 327 325 11 2 92 214 198 191 159 263 260 275 308 288 270 256 254 275 293 291
46 35 29 56 69 91 73 18 70 42 72 39 45 66 40 359 6 307 327 356 342 331 316 289 186 206 255 264 212 295 276 265 216 271 277 255 282 294 294 282 278 278 293 297 286
62 67 65 15 42 72 78 87 76 15 51 51 65 94 87 353 332 269 326 299 280 297 302 355 259 233 263 275 282 274 286 283 255 252 249 279 287 284 293 290 287 295 302 307 268
116 145 99 93 110 81 18 217 133 320 184 355 123 342 212 204 219 286 272 235 230 278 256 228 272 288 290 287 271 278 278 266 269 267 249 256 273 271 288 313 332 324 314 317 323
128 133 141 147 132 98 214 166 146 45 295 229 352 158 268 278 307 294 286 268 255 263 272 237 268 285 278 285 302 279 254 257 252 239 220 237 262 303 303 335 360 7 347 336 334